Time,TemperatureF,DewpointF,PressureIn,WindDirection,WindDirectionDegrees,WindSpeedMPH,WindSpeedGustMPH,Humidity,HourlyPrecipIn,Conditions,Clouds,dailyrainin,SoftwareType,DateUTC
2013-07-25 00:07:00,74.3,70.8,29.70,SW,225,0.0,-999.0,89,-99.99,,,0.00,Acu-Link.com,2013-07-25 04:07:00,
2013-07-25 00:22:00,73.9,70.8,29.70,SW,225,0.0,-999.0,90,-99.99,,,0.00,Acu-Link.com,2013-07-25 04:22:00,
2013-07-25 00:37:00,73.8,71.0,29.71,SW,225,0.0,-999.0,91,-99.99,,,0.00,Acu-Link.com,2013-07-25 04:37:00,
2013-07-25 00:52:00,73.8,71.0,29.71,SW,225,1.1,-999.0,91,-99.99,,,0.00,Acu-Link.com,2013-07-25 04:52:00,
2013-07-25 01:08:00,73.8,71.0,29.69,ESE,112,1.1,-999.0,91,-99.99,,,0.00,Acu-Link.com,2013-07-25 05:08:00,
2013-07-25 01:23:00,73.6,70.8,29.69,South,180,0.0,-999.0,91,-99.99,,,0.00,Acu-Link.com,2013-07-25 05:23:00,
2013-07-25 01:38:00,73.2,70.4,29.70,South,180,0.0,-999.0,91,-99.99,,,0.00,Acu-Link.com,2013-07-25 05:38:00,
2013-07-25 01:53:00,73.2,70.4,29.70,ESE,112,0.0,-999.0,91,-99.99,,,0.00,Acu-Link.com,2013-07-25 05:53:00,
2013-07-25 02:08:00,73.0,70.2,29.70,ENE,67,0.0,-999.0,91,-99.99,,,0.00,Acu-Link.com,2013-07-25 06:08:00,
2013-07-25 02:24:00,73.0,70.2,29.69,SW,225,0.0,-999.0,91,-99.99,,,0.00,Acu-Link.com,2013-07-25 06:24:00,
2013-07-25 02:39:00,73.0,70.5,29.69,ENE,67,1.7,-999.0,92,-99.99,,,0.00,Acu-Link.com,2013-07-25 06:39:00,
2013-07-25 02:54:00,73.0,70.9,29.68,NNW,337,1.1,-999.0,93,-99.99,,,0.00,Acu-Link.com,2013-07-25 06:54:00,
2013-07-25 03:09:00,73.0,70.9,29.68,North,0,2.2,-999.0,93,-99.99,,,0.00,Acu-Link.com,2013-07-25 07:09:00,
2013-07-25 03:25:00,72.9,70.4,29.68,North,0,1.7,-999.0,92,-99.99,,,0.00,Acu-Link.com,2013-07-25 07:25:00,
2013-07-25 03:40:00,72.9,70.4,29.68,ENE,67,3.2,-999.0,92,-99.99,,,0.00,Acu-Link.com,2013-07-25 07:40:00,
2013-07-25 03:55:00,72.9,69.5,29.67,NE,45,2.7,-999.0,89,-99.99,,,0.00,Acu-Link.com,2013-07-25 07:55:00,
2013-07-25 04:10:00,72.5,69.1,29.66,NE,45,2.2,-999.0,89,-99.99,,,0.00,Acu-Link.com,2013-07-25 08:10:00,
2013-07-25 04:26:00,72.5,69.4,29.66,ENE,67,1.7,-999.0,90,-99.99,,,0.00,Acu-Link.com,2013-07-25 08:26:00,
2013-07-25 04:41:00,71.8,68.7,29.67,West,270,2.7,-999.0,90,-99.99,,,0.00,Acu-Link.com,2013-07-25 08:41:00,
2013-07-25 05:11:00,70.3,68.8,29.67,NNE,22,3.7,-999.0,95,-99.99,,,0.00,Acu-Link.com,2013-07-25 09:11:00,
2013-07-25 05:26:00,70.0,68.8,29.68,West,270,0.0,-999.0,96,-99.99,,,0.00,Acu-Link.com,2013-07-25 09:26:00,
2013-07-25 05:41:00,70.0,69.1,29.69,West,270,2.2,-999.0,97,-99.99,,,0.00,Acu-Link.com,2013-07-25 09:41:00,
2013-07-25 05:57:00,69.8,68.9,29.69,SSW,202,1.1,-999.0,97,-99.99,,,0.00,Acu-Link.com,2013-07-25 09:57:00,
2013-07-25 06:12:00,69.8,69.2,29.70,West,270,1.1,-999.0,98,-99.99,,,0.00,Acu-Link.com,2013-07-25 10:12:00,
2013-07-25 06:27:00,69.8,69.2,29.69,NW,315,1.7,-999.0,98,-99.99,,,0.00,Acu-Link.com,2013-07-25 10:27:00,
2013-07-25 06:42:00,69.8,68.9,29.70,ESE,112,2.7,-999.0,97,-99.99,,,0.00,Acu-Link.com,2013-07-25 10:42:00,
2013-07-25 06:57:00,69.8,68.6,29.71,NNE,22,2.2,-999.0,96,-99.99,,,0.00,Acu-Link.com,2013-07-25 10:57:00,
2013-07-25 07:13:00,70.0,68.2,29.71,NNE,22,5.3,-999.0,94,-99.99,,,0.00,Acu-Link.com,2013-07-25 11:13:00,
2013-07-25 07:28:00,70.2,68.1,29.71,WNW,292,2.2,-999.0,93,-99.99,,,0.00,Acu-Link.com,2013-07-25 11:28:00,
2013-07-25 07:43:00,70.5,68.4,29.72,North,0,0.0,-999.0,93,-99.99,,,0.00,Acu-Link.com,2013-07-25 11:43:00,
2013-07-25 07:58:00,70.7,68.3,29.73,ENE,67,2.2,-999.0,92,-99.99,,,0.00,Acu-Link.com,2013-07-25 11:58:00,
2013-07-25 08:13:00,70.9,68.5,29.73,ENE,67,0.0,-999.0,92,-99.99,,,0.00,Acu-Link.com,2013-07-25 12:13:00,
2013-07-25 08:29:00,71.1,68.7,29.74,West,270,1.1,-999.0,92,-99.99,,,0.00,Acu-Link.com,2013-07-25 12:29:00,
2013-07-25 08:44:00,71.1,68.3,29.74,NNE,22,2.2,-999.0,91,-99.99,,,0.00,Acu-Link.com,2013-07-25 12:44:00,
2013-07-25 08:59:00,72.0,68.6,29.75,West,270,2.7,-999.0,89,-99.99,,,0.00,Acu-Link.com,2013-07-25 12:59:00,
2013-07-25 09:14:00,72.3,68.5,29.76,WNW,292,2.7,-999.0,88,-99.99,,,0.00,Acu-Link.com,2013-07-25 13:14:00,
2013-07-25 09:30:00,73.2,69.1,29.75,ESE,112,2.7,-999.0,87,-99.99,,,0.00,Acu-Link.com,2013-07-25 13:30:00,
2013-07-25 09:45:00,74.5,69.0,29.76,North,0,4.2,-999.0,83,-99.99,,,0.00,Acu-Link.com,2013-07-25 13:45:00,
2013-07-25 10:00:00,74.1,68.9,29.76,SW,225,1.7,-999.0,84,-99.99,,,0.00,Acu-Link.com,2013-07-25 14:00:00,
2013-07-25 10:15:00,73.4,68.6,29.77,NNE,22,1.7,-999.0,85,-99.99,,,0.00,Acu-Link.com,2013-07-25 14:15:00,
2013-07-25 10:30:00,73.0,68.6,29.78,NNW,337,3.7,-999.0,86,-99.99,,,0.00,Acu-Link.com,2013-07-25 14:30:00,
2013-07-25 10:46:00,73.0,68.6,29.78,NW,315,2.2,-999.0,86,-99.99,,,0.00,Acu-Link.com,2013-07-25 14:46:00,
2013-07-25 11:16:00,73.8,68.7,29.79,ESE,112,1.7,-999.0,84,-99.99,,,0.00,Acu-Link.com,2013-07-25 15:16:00,
2013-07-25 11:31:00,73.4,67.9,29.79,NNW,337,4.2,-999.0,83,-99.99,,,0.00,Acu-Link.com,2013-07-25 15:31:00,
2013-07-25 11:46:00,74.5,69.0,29.80,North,0,5.3,-999.0,83,-99.99,,,0.00,Acu-Link.com,2013-07-25 15:46:00,
2013-07-25 12:02:00,74.7,69.2,29.79,NNE,22,4.7,-999.0,83,-99.99,,,0.00,Acu-Link.com,2013-07-25 16:02:00,
2013-07-25 12:17:00,74.3,69.1,29.80,NNW,337,4.2,-999.0,84,-99.99,,,0.00,Acu-Link.com,2013-07-25 16:17:00,
2013-07-25 12:32:00,75.4,69.2,29.80,NE,45,2.2,-999.0,81,-99.99,,,0.00,Acu-Link.com,2013-07-25 16:32:00,
2013-07-25 12:47:00,76.6,69.6,29.79,NNE,22,4.7,-999.0,79,-99.99,,,0.00,Acu-Link.com,2013-07-25 16:47:00,
2013-07-25 13:02:00,75.6,69.7,29.80,NW,315,7.8,-999.0,82,-99.99,,,0.00,Acu-Link.com,2013-07-25 17:02:00,
2013-07-25 13:18:00,75.9,69.6,29.81,ENE,67,2.2,-999.0,81,-99.99,,,0.00,Acu-Link.com,2013-07-25 17:18:00,
2013-07-25 13:33:00,76.1,69.8,29.81,NE,45,6.3,-999.0,81,-99.99,,,0.00,Acu-Link.com,2013-07-25 17:33:00,
2013-07-25 13:48:00,77.7,70.3,29.80,WNW,292,5.3,-999.0,78,-99.99,,,0.00,Acu-Link.com,2013-07-25 17:48:00,
2013-07-25 14:03:00,77.2,69.8,29.79,WNW,292,7.8,-999.0,78,-99.99,,,0.00,Acu-Link.com,2013-07-25 18:03:00,
2013-07-25 14:19:00,76.5,69.5,29.80,WSW,247,2.2,-999.0,79,-99.99,,,0.00,Acu-Link.com,2013-07-25 18:19:00,
2013-07-25 14:34:00,78.4,70.2,29.80,NNE,22,3.2,-999.0,76,-99.99,,,0.00,Acu-Link.com,2013-07-25 18:34:00,
2013-07-25 14:49:00,80.8,70.5,29.79,NNW,337,2.7,-999.0,71,-99.99,,,0.00,Acu-Link.com,2013-07-25 18:49:00,
2013-07-25 15:04:00,80.4,70.1,29.80,NNE,22,4.2,-999.0,71,-99.99,,,0.00,Acu-Link.com,2013-07-25 19:04:00,
2013-07-25 15:19:00,79.7,70.3,29.80,NNE,22,7.3,-999.0,73,-99.99,,,0.00,Acu-Link.com,2013-07-25 19:19:00,
2013-07-25 15:35:00,78.6,70.0,29.80,West,270,2.2,-999.0,75,-99.99,,,0.00,Acu-Link.com,2013-07-25 19:35:00,
2013-07-25 15:50:00,79.0,71.2,29.80,SW,225,2.2,-999.0,77,-99.99,,,0.00,Acu-Link.com,2013-07-25 19:50:00,
2013-07-25 16:05:00,81.5,72.0,29.79,West,270,2.7,-999.0,73,-99.99,,,0.00,Acu-Link.com,2013-07-25 20:05:00,
2013-07-25 16:20:00,81.5,71.2,29.80,WSW,247,1.7,-999.0,71,-99.99,,,0.00,Acu-Link.com,2013-07-25 20:20:00,
2013-07-25 16:35:00,81.3,71.0,29.79,ESE,112,2.2,-999.0,71,-99.99,,,0.00,Acu-Link.com,2013-07-25 20:35:00,
2013-07-25 16:51:00,83.1,70.5,29.80,NNW,337,2.7,-999.0,66,-99.99,,,0.00,Acu-Link.com,2013-07-25 20:51:00,
2013-07-25 17:36:00,81.7,69.7,29.81,WNW,292,2.7,-999.0,67,-99.99,,,0.00,Acu-Link.com,2013-07-25 21:36:00,
2013-07-25 17:51:00,81.7,69.7,29.80,NNE,22,5.3,-999.0,67,-99.99,,,0.00,Acu-Link.com,2013-07-25 21:51:00,
2013-07-25 18:07:00,84.2,70.7,29.81,NNW,337,3.2,-999.0,64,-99.99,,,0.00,Acu-Link.com,2013-07-25 22:07:00,
2013-07-25 18:22:00,85.8,70.8,29.80,WSW,247,2.2,-999.0,61,-99.99,,,0.00,Acu-Link.com,2013-07-25 22:22:00,
2013-07-25 18:37:00,85.3,69.8,29.81,NNE,22,6.8,-999.0,60,-99.99,,,0.00,Acu-Link.com,2013-07-25 22:37:00,
2013-07-25 18:52:00,85.5,69.0,29.81,NNE,22,2.7,-999.0,58,-99.99,,,0.00,Acu-Link.com,2013-07-25 22:52:00,
2013-07-25 19:08:00,84.4,69.0,29.81,WNW,292,3.2,-999.0,60,-99.99,,,0.00,Acu-Link.com,2013-07-25 23:08:00,
2013-07-25 19:23:00,83.1,69.2,29.82,NNE,22,2.7,-999.0,63,-99.99,,,0.00,Acu-Link.com,2013-07-25 23:23:00,
2013-07-25 19:38:00,82.6,69.2,29.82,NE,45,1.7,-999.0,64,-99.99,,,0.00,Acu-Link.com,2013-07-25 23:38:00,
2013-07-25 19:53:00,79.9,68.8,29.82,WNW,292,0.0,-999.0,69,-99.99,,,0.00,Acu-Link.com,2013-07-25 23:53:00,
2013-07-25 20:08:00,77.4,68.8,29.83,West,270,0.0,-999.0,75,-99.99,,,0.00,Acu-Link.com,2013-07-26 00:08:00,
2013-07-25 20:23:00,75.4,68.8,29.83,SSW,202,0.0,-999.0,80,-99.99,,,0.00,Acu-Link.com,2013-07-26 00:23:00,
2013-07-25 20:39:00,74.1,68.2,29.83,West,270,0.0,-999.0,82,-99.99,,,0.00,Acu-Link.com,2013-07-26 00:39:00,
2013-07-25 20:54:00,73.0,68.2,29.84,North,0,0.0,-999.0,85,-99.99,,,0.00,Acu-Link.com,2013-07-26 00:54:00,
2013-07-25 21:09:00,72.3,67.5,29.85,West,270,0.0,-999.0,85,-99.99,,,0.00,Acu-Link.com,2013-07-26 01:09:00,
2013-07-25 21:24:00,71.4,67.7,29.85,West,270,0.0,-999.0,88,-99.99,,,0.00,Acu-Link.com,2013-07-26 01:24:00,
2013-07-25 21:39:00,70.9,67.5,29.85,West,270,0.0,-999.0,89,-99.99,,,0.00,Acu-Link.com,2013-07-26 01:39:00,
2013-07-25 21:54:00,70.5,67.4,29.86,West,270,0.0,-999.0,90,-99.99,,,0.00,Acu-Link.com,2013-07-26 01:54:00,
2013-07-25 22:09:00,70.0,67.6,29.88,SSW,202,0.0,-999.0,92,-99.99,,,0.00,Acu-Link.com,2013-07-26 02:09:00,
2013-07-25 22:24:00,69.6,67.2,29.88,North,0,0.0,-999.0,92,-99.99,,,0.00,Acu-Link.com,2013-07-26 02:24:00,
2013-07-25 22:40:00,68.9,67.1,29.88,North,0,0.0,-999.0,94,-99.99,,,0.00,Acu-Link.com,2013-07-26 02:40:00,
2013-07-25 22:55:00,68.2,66.4,29.88,North,0,0.0,-999.0,94,-99.99,,,0.00,Acu-Link.com,2013-07-26 02:55:00,
2013-07-25 23:10:00,67.8,66.3,29.89,North,0,0.0,-999.0,95,-99.99,,,0.00,Acu-Link.com,2013-07-26 03:10:00,
2013-07-25 23:25:00,67.5,66.3,29.90,North,0,0.0,-999.0,96,-99.99,,,0.00,Acu-Link.com,2013-07-26 03:25:00,
2013-07-25 23:40:00,66.7,65.8,29.89,North,0,0.0,-999.0,97,-99.99,,,0.00,Acu-Link.com,2013-07-26 03:40:00,
2013-07-25 23:56:00,66.4,65.5,29.89,North,0,0.0,-999.0,97,-99.99,,,0.00,Acu-Link.com,2013-07-26 03:56:00,